sat.trackr.live / text

‹ back to catalog

STARLINK-11253 [DTC]

NORAD 60935 · 2024-155M

PAYLOAD ACTIVE UNKNOWN

§ Identity

Operator
Country
US
Launch date
2024-08-31
Launch site
AFWTR
Launch vehicle
Mass (kg)
RCS (m²)

Purposes: comms

External: N2YO · Heavens-Above · Gunter

§ Orbital elements

Epoch: 2026-05-24T22:28:02.800128Z

Period
91.74 min
Inclination
53.1591°
Eccentricity
0.0000781
Mean motion
15.69714239 rev/d
Perigee alt
359.2 km
Apogee alt
360.2 km
Semi-major
6,737.9 km
B*
2.9950e-6
RAAN
325.6817°
Arg perigee
95.2162°
Mean anomaly
264.8945°
Rev number
10,037

§ Raw data

STARLINK-11253 [DTC]1 60935U 24155M   26144.93614352 -.00000225  00000+0  29950-5 0  99992 60935  53.1591 325.6817 0000781  95.2162 264.8945 15.69714239100378

JSON: /api/v1/satellites/60935 · /tle

For live sub-satellite position, see the globe view (requires WebGL).

§ Visibility from observer

Set your observer location to see the next 7 days of passes ≥ 10°. The values pass through the URL so the page stays shareable.

No JS? Fill the form by hand. The geolocation button needs JavaScript.